[[{"header":{"parameterUnit":"m.s-1","parameterCategory":1,"la1":30.2991,"la2":30.254,"lo1":-89.0895,"lo2":-89.0444,"dy":0.0017,"dx":0.0017,"nx":28,"ny":28,"refTime":"2023-11-16T03:00:00:Z","depth":0,"parameterNumber":2,"parameterNumberName":"U-component_of_WINDS"},"data":[0,0,0,0,0,0,0,0,0,0,0,0,0,0,0,0,0,0,0,0,0,0,0,0,0,0,0,0,0,0,0,0,0,0,0,0,0,0,0,0,0,0,0,0,0,0,0,0,0,0,0,0,0,0,0,0,0,0,-5.1143,-5.1145,0,-5.1275,-5.1277,-5.1278,-5.1205,-5.1202,-5.1198,-5.1195,-5.1333,-5.134,-5.1347,0,0,0,0,0,0,0,0,0,0,0,0,0,-5.0831,-5.0837,-5.1143,-5.1145,-5.1146,-5.1275,-5.1277,-5.1279,-5.1206,-5.1202,-5.1197,-5.1193,-5.1331,-5.1339,-5.1348,0,0,0,0,0,0,0,0,0,0,0,0,0,-5.0965,-5.0839,-5.1143,-5.1126,-5.1125,-5.1275,-5.1277,-5.1279,-5.1207,-5.1202,-5.1196,-5.1191,-5.1328,-5.1338,-5.1349,-5.1524,0,0,-5.1381,-5.1386,0,0,0,0,0,0,0,0,-5.0958,-5.0977,-5.1126,-5.1127,-5.1127,-5.1218,-5.1217,-5.1361,-5.1208,-5.1176,-5.1195,-5.1188,-5.13,-5.1312,-5.1349,-5.153,-5.1536,-5.1382,-5.1389,-5.1393,-5.1396,0,0,0,0,0,0,0,-5.0948,-5.0971,-5.1195,-5.1129,-5.1129,-5.1112,-5.1125,-5.1244,-5.1267,-5.1179,-5.1174,-5.119,-5.1299,-5.1339,-5.1352,-5.1538,-5.1382,-5.1391,-5.1398,-5.1402,-5.1871,-5.1877,0,0,0,0,0,0,-5.094,-5.0963,-5.1191,-5.1199,-5.1027,-5.1122,-5.1137,-5.1195,-5.1265,-5.1271,-5.1195,-5.1186,-5.1324,-5.1339,-5.1356,-5.1567,-5.1393,-5.1403,-5.1409,-5.1865,-5.1873,-5.1879,0,0,0,0,0,0,-5.0933,-5.0961,-5.1186,-5.108,-5.1107,-5.1133,-5.1199,-5.12,-5.124,-5.1277,-5.1281,-5.1231,-5.132,-5.1341,-5.1483,-5.1571,-5.1408,-5.1418,-5.1858,-5.1867,-5.1876,-5.199,0,0,0,0,0,0,-5.0925,-5.0959,-5.1025,-5.1082,-5.1113,-5.131,-5.1204,-5.1207,-5.1258,-5.1249,-5.1313,-5.1319,-5.1317,-5.1467,-5.1493,-5.1583,-5.1426,-5.185,-5.1862,-5.1873,-5.1978,-5.2001,-5.2021,0,0,0,0,0,-5.0914,-5.1052,-5.1028,-5.1056,-5.1196,-5.1315,-5.1333,-5.1327,-5.1266,-5.1333,-5.1357,-5.1317,-5.1557,-5.1482,-5.1511,-5.1605,-5.1845,-5.1859,-5.1872,-5.1968,-5.1997,-5.2021,0,0,0,0,0,0,-5.1005,-5.1059,-5.1034,-5.1194,-5.125,-5.1302,-5.1387,-5.1357,-5.1433,-5.1421,-5.1412,-5.1427,-5.1575,-5.1603,-5.152,-5.1779,-5.1691,-5.1711,-5.1755,-5.1782,-5.1803,-5.1794,-5.1435,0,0,0,0,0,-5.1043,-5.1134,-5.1177,-5.1314,-5.1344,-5.1361,-5.1412,-5.1403,-5.1461,-5.1485,-5.1519,-5.1578,-5.1667,-5.1726,-5.1809,-5.1981,-5.1995,-5.206,-5.2082,-5.2099,-5.2117,-5.2213,-5.2242,-5.1924,-5.1924,-5.1924,0,0,-5.1125,-5.1165,-5.1223,-5.1334,-5.1376,-5.1472,-5.1381,-5.1486,-5.1557,-5.1501,-5.1637,-5.1664,-5.173,-5.1888,-5.1959,-5.1916,-5.2208,-5.2117,-5.213,-5.2139,-5.223,-5.226,-5.2287,-5.1933,-5.1932,-5.193,0,0,-5.1322,-5.1361,-5.1481,-5.1525,-5.159,-5.16,-5.1629,-5.1686,-5.1702,-5.1838,-5.1798,-5.1883,-5.2036,-5.2084,-5.2129,-5.2345,-5.2312,-5.2373,-5.2487,-5.258,-5.2605,-5.2627,-5.2706,-5.2735,-5.239,-5.2391,-5.2391,0,-5.1415,-5.1556,-5.1546,-5.1654,-5.1705,-5.1657,-5.178,-5.1823,-5.1913,-5.195,-5.19,-5.2092,-5.2132,-5.2302,-5.2355,-5.2392,-5.2426,-5.2366,-5.2602,-5.2624,-5.2645,-5.272,-5.275,-5.2398,-5.2397,-5.2396,-5.2396,0,-5.1668,-5.1767,-5.1856,-5.1943,-5.2004,-5.2118,-5.2127,-5.2189,-5.2175,-5.2191,-5.2331,-5.2378,-5.2471,-5.251,-5.2497,-5.2679,-5.2651,-5.2602,-5.2514,-5.2682,-5.2753,-5.2782,-5.2408,-5.2405,-5.2403,-5.2402,0,0,-5.1927,-5.2008,-5.2041,-5.2081,-5.2149,-5.2226,-5.2339,-5.2429,-5.2484,-5.2547,-5.2643,-5.2774,-5.2729,-5.278,-5.2772,-5.2854,-5.3025,-5.2795,-5.2796,-5.2838,-5.323,-5.3268,-5.3301,-5.3002,-5.3007,-5.3012,-5.3225,0,-5.213,-5.2327,-5.2322,-5.2505,-5.2598,-5.2554,-5.2653,-5.2707,-5.2725,-5.2806,-5.2826,-5.292,-5.2853,-5.2884,-5.2962,-5.2987,-5.3103,-5.2971,-5.3093,-5.3098,-5.308,-5.3338,-5.3378,-5.3577,-5.3252,-5.3257,-5.326,0,-5.2394,-5.2466,-5.2659,-5.2715,-5.2753,-5.2842,-5.2925,-5.3003,-5.3064,-5.3071,-5.3128,-5.3108,-5.3224,-5.3132,-5.3293,-5.3204,-5.3253,-5.3273,-5.3281,-5.3294,-5.3191,-5.336,-5.364,-5.3671,-5.3304,-5.33,-5.3297,0,-5.2566,-5.2711,-5.2846,-5.2881,-5.2949,-5.3013,-5.3044,-5.3099,-5.3154,-5.3227,-5.3263,-5.3349,-5.3396,-5.3464,-5.3468,-5.34,-5.3632,-5.3539,-5.3643,-5.3643,-5.3695,-5.3692,-5.399,-5.3724,-5.3723,-5.3723,-5.3722,0,-5.2794,-5.2915,-5.2924,-5.3007,-5.3141,-5.3134,-5.3267,-5.3293,-5.3342,-5.3431,-5.3398,-5.3482,-5.3481,-5.3567,-5.3571,-5.3705,-5.3726,-5.3737,-5.3737,-5.3741,-5.374,-5.3775,-5.3762,-5.3731,-5.3729,-5.3727,-5.3726,0,-5.301,-5.3021,-5.3165,-5.3218,-5.3234,-5.3331,-5.3377,-5.3457,-5.3471,-5.3584,-5.361,-5.3634,-5.3733,-5.3743,-5.3859,-5.3862,-5.4025,-5.4009,-5.4005,-5.4003,-5.4107,-5.4098,-5.4439,-5.4484,-5.4187,-5.4189,-5.4192,0,-5.3156,-5.3248,-5.331,-5.3367,-5.3402,-5.3493,-5.3549,-5.3546,-5.3606,-5.3682,-5.3753,-5.3849,-5.3926,-5.4088,-5.4117,-5.4205,-5.4193,-5.4306,-5.4206,-5.4208,-5.4197,-5.4193,-5.4203,-5.4326,-5.433,-5.4332,-5.4334,0,-5.3415,-5.3416,-5.3497,-5.3582,-5.3649,-5.3715,-5.3777,-5.3826,-5.383,-5.3899,-5.4,-5.406,-5.4178,-5.4275,-5.4363,-5.4396,-5.4368,-5.4365,-5.4394,-5.4401,-5.4395,-5.4402,-5.406,-5.4358,-5.4356,-5.4354,-5.4353,-5.4352,-5.3602,-5.3682,-5.3739,-5.3831,-5.3877,-5.3936,-5.4014,-5.4039,-5.4122,-5.4218,-5.4211,-5.4323,-5.4383,-5.4497,-5.4538,-5.4626,-5.4589,-5.463,-5.4641,-5.4652,-5.4664,-5.4379,-5.4642,-5.4641,-5.4641,-5.464,-5.464,0,-5.3861,-5.3895,-5.398,-5.4068,-5.4141,-5.4105,-5.4172,-5.4236,-5.4335,-5.4392,-5.4469,-5.4586,-5.468,-5.4716,-5.4808,-5.4872,-5.4862,-5.4897,-5.4893,-5.4902,-5.4691,-5.4658,-5.4904,-5.4904,-5.4904,-5.4904,-5.4904,-5.4904,-5.4004,-5.4138,-5.4146,-5.4303,-5.4337,-5.4446,-5.4488,-5.4543,-5.4588,-5.472,-5.4798,-5.482,-5.487,-5.4965,-5.5051,-5.5059,-5.5095,-5.5137,-5.514,-5.4943,-5.4917,-5.4891,-5.486,-5.5145,-5.5145,-5.5344,-5.5345,-5.5347]},{"header":{"parameterUnit":"m.s-1","parameterCategory":1,"la1":30.2991,"la2":30.254,"lo1":-89.0895,"lo2":-89.0444,"dy":0.0017,"dx":0.0017,"nx":28,"ny":28,"refTime":"2023-11-16T03:00:00:Z","depth":0,"parameterNumber":3,"parameterNumberName":"V-component_of_WINDS"},"data":[0,0,0,0,0,0,0,0,0,0,0,0,0,0,0,0,0,0,0,0,0,0,0,0,0,0,0,0,0,0,0,0,0,0,0,0,0,0,0,0,0,0,0,0,0,0,0,0,0,0,0,0,0,0,0,0,0,0,-5.4162,-5.4162,0,-5.4122,-5.4122,-5.4122,-5.4012,-5.401,-5.4008,-5.4005,-5.3967,-5.3968,-5.3969,0,0,0,0,0,0,0,0,0,0,0,0,0,-5.4146,-5.4147,-5.4163,-5.4162,-5.4162,-5.4123,-5.4122,-5.4121,-5.4013,-5.401,-5.4007,-5.4004,-5.3966,-5.3968,-5.3969,0,0,0,0,0,0,0,0,0,0,0,0,0,-5.4135,-5.4147,-5.4163,-5.4103,-5.4097,-5.4123,-5.4122,-5.4121,-5.4013,-5.401,-5.4006,-5.4003,-5.3966,-5.3968,-5.3969,-5.4051,0,0,-5.3975,-5.3975,0,0,0,0,0,0,0,0,-5.4135,-5.4135,-5.4112,-5.4107,-5.41,-5.4069,-5.4102,-5.4098,-5.4014,-5.4045,-5.4005,-5.4001,-5.4004,-5.4002,-5.4002,-5.4049,-5.4047,-5.3975,-5.3976,-5.3977,-5.3977,0,0,0,0,0,0,0,-5.4136,-5.4136,-5.4147,-5.4112,-5.4105,-5.4078,-5.4072,-5.4101,-5.4045,-5.4042,-5.4034,-5.4031,-5.4,-5.4001,-5.4001,-5.4047,-5.3975,-5.3976,-5.3977,-5.3978,-5.4157,-5.4161,0,0,0,0,0,0,-5.4145,-5.4138,-5.4148,-5.4145,-5.4109,-5.4081,-5.4075,-5.4082,-5.4044,-5.4035,-5.4034,-5.4026,-5.4,-5.3999,-5.3999,-5.4091,-5.3977,-5.3978,-5.3979,-5.4154,-5.4158,-5.4162,0,0,0,0,0,0,-5.4146,-5.4147,-5.415,-5.4139,-5.4138,-5.4085,-5.4095,-5.4084,-5.4084,-5.4038,-5.4027,-5.4045,-5.3997,-5.3996,-5.4038,-5.4088,-5.3979,-5.3981,-5.4149,-5.4155,-5.416,-5.4277,0,0,0,0,0,0,-5.4146,-5.4148,-5.4178,-5.4141,-5.4139,-5.419,-5.4098,-5.4085,-5.4088,-5.4077,-5.4046,-5.4037,-5.3994,-5.4036,-5.404,-5.4089,-5.3982,-5.4145,-5.4152,-5.4158,-5.4268,-5.4286,-5.4301,0,0,0,0,0,-5.4145,-5.4214,-5.418,-5.4182,-5.4175,-5.4193,-5.4191,-5.414,-5.4092,-5.4122,-5.4092,-5.4038,-5.4082,-5.4042,-5.4045,-5.4095,-5.4141,-5.415,-5.4158,-5.4261,-5.4282,-5.43,0,0,0,0,0,0,-5.4259,-5.4208,-5.417,-5.4228,-5.4216,-5.4174,-5.4211,-5.4164,-5.4165,-5.4155,-5.4092,-5.4086,-5.4136,-5.412,-5.4075,-5.4171,-5.4103,-5.4112,-5.418,-5.42,-5.4216,-5.4219,-5.3983,0,0,0,0,0,-5.4291,-5.4309,-5.4263,-5.4319,-5.4314,-5.4264,-5.427,-5.4231,-5.4215,-5.421,-5.4183,-5.417,-5.4181,-5.419,-5.4197,-5.4265,-5.4257,-5.4301,-5.4317,-5.4331,-5.434,-5.4374,-5.4393,-5.419,-5.419,-5.4189,0,0,-5.4357,-5.4331,-5.4347,-5.4341,-5.4327,-5.4347,-5.426,-5.4286,-5.43,-5.4214,-5.4251,-5.4231,-5.4213,-5.4268,-5.4291,-5.4256,-5.4394,-5.4342,-5.4353,-5.4354,-5.4384,-5.4404,-5.4421,-5.4195,-5.4194,-5.4193,0,0,-5.4488,-5.447,-5.4514,-5.4501,-5.448,-5.4446,-5.4456,-5.4422,-5.4405,-5.4441,-5.4376,-5.4393,-5.4413,-5.4403,-5.44,-5.4526,-5.4477,-5.453,-5.4615,-5.4649,-5.4665,-5.4679,-5.4723,-5.474,-5.4539,-5.454,-5.454,0,-5.4573,-5.46,-5.4543,-5.4572,-5.4571,-5.4493,-5.4537,-5.4527,-5.451,-5.4512,-5.4472,-5.4495,-5.4478,-5.4529,-5.456,-5.456,-5.457,-5.4534,-5.4667,-5.468,-5.4692,-5.4734,-5.4751,-5.4546,-5.4546,-5.4545,-5.4544,0,-5.4705,-5.4725,-5.4763,-5.4747,-5.4751,-5.4788,-5.4736,-5.4747,-5.4708,-5.4678,-5.4716,-5.4692,-5.4693,-5.4702,-5.4665,-5.4748,-5.4727,-5.4678,-5.4608,-5.4719,-5.4757,-5.4773,-5.4556,-5.4553,-5.4551,-5.455,0,0,-5.4907,-5.4858,-5.4873,-5.4864,-5.4835,-5.4849,-5.4883,-5.4882,-5.4892,-5.4883,-5.4909,-5.4928,-5.4882,-5.4879,-5.484,-5.487,-5.497,-5.4817,-5.4816,-5.4846,-5.506,-5.5097,-5.5116,-5.4937,-5.494,-5.4942,-5.5062,0,-5.5029,-5.5082,-5.5031,-5.5094,-5.5111,-5.5037,-5.5066,-5.5051,-5.5024,-5.5035,-5.5006,-5.5019,-5.4959,-5.4956,-5.4983,-5.4953,-5.5012,-5.4943,-5.4961,-5.4962,-5.4967,-5.5136,-5.5175,-5.5288,-5.5076,-5.5079,-5.508,0,-5.518,-5.5176,-5.5241,-5.5206,-5.5211,-5.5238,-5.5233,-5.5245,-5.5227,-5.5205,-5.5202,-5.5153,-5.5183,-5.5115,-5.5156,-5.511,-5.5114,-5.51,-5.5104,-5.5103,-5.5028,-5.514,-5.5323,-5.534,-5.5103,-5.5101,-5.51,0,-5.5319,-5.5331,-5.5371,-5.5366,-5.5327,-5.5347,-5.5332,-5.531,-5.5313,-5.5309,-5.531,-5.531,-5.5311,-5.5312,-5.5265,-5.522,-5.5312,-5.524,-5.5294,-5.5296,-5.5317,-5.5316,-5.5504,-5.5321,-5.5321,-5.532,-5.532,0,-5.5461,-5.5504,-5.5433,-5.5457,-5.5502,-5.5443,-5.549,-5.5467,-5.5448,-5.5467,-5.5403,-5.5422,-5.5359,-5.5372,-5.5336,-5.5375,-5.5375,-5.5359,-5.5348,-5.5364,-5.5366,-5.5366,-5.5357,-5.5325,-5.5324,-5.5323,-5.5322,0,-5.5625,-5.5579,-5.5618,-5.5577,-5.5568,-5.5603,-5.5568,-5.5589,-5.5558,-5.5582,-5.5585,-5.5536,-5.5547,-5.5501,-5.5505,-5.548,-5.5538,-5.5515,-5.5544,-5.5537,-5.5594,-5.5589,-5.5787,-5.581,-5.5613,-5.5615,-5.5617,0,-5.5719,-5.5749,-5.5711,-5.5719,-5.5707,-5.572,-5.5722,-5.5665,-5.567,-5.5651,-5.5675,-5.5681,-5.5683,-5.5705,-5.567,-5.5673,-5.5649,-5.5718,-5.5649,-5.5663,-5.5649,-5.5648,-5.565,-5.5733,-5.5735,-5.5737,-5.5739,0,-5.5889,-5.5865,-5.587,-5.5867,-5.5871,-5.5867,-5.5858,-5.5868,-5.5806,-5.5815,-5.5826,-5.5827,-5.5831,-5.5838,-5.5833,-5.5817,-5.5768,-5.5761,-5.5773,-5.579,-5.5805,-5.5797,-5.5583,-5.5756,-5.5755,-5.5753,-5.5752,-5.5752,-5.602,-5.6043,-5.602,-5.6028,-5.6015,-5.6008,-5.6025,-5.5995,-5.6003,-5.6,-5.5967,-5.5984,-5.5964,-5.5952,-5.5942,-5.5955,-5.5922,-5.5941,-5.5945,-5.5951,-5.596,-5.5803,-5.5954,-5.5953,-5.5952,-5.5952,-5.5952,0,-5.6187,-5.6168,-5.6176,-5.6164,-5.6171,-5.6122,-5.611,-5.6119,-5.6134,-5.6119,-5.6122,-5.6134,-5.614,-5.6106,-5.6107,-5.6124,-5.6101,-5.6126,-5.6124,-5.6121,-5.599,-5.5978,-5.6144,-5.6144,-5.6144,-5.6144,-5.6144,-5.6144,-5.6274,-5.6311,-5.6284,-5.6313,-5.6294,-5.6309,-5.6306,-5.6299,-5.6287,-5.6303,-5.6307,-5.6284,-5.6261,-5.6261,-5.6264,-5.6254,-5.6257,-5.629,-5.6272,-5.615,-5.6131,-5.6113,-5.6102,-5.6291,-5.6292,-5.6402,-5.6404,-5.6404]}]]